Regional Weather Roundup
Issued by NWS

Home | Current Version | Previous Version | Text Only | Print | Product List | Glossary On
Versions: 1 2 3 4 5 6 7 8 9 10 11 12 13 14 15 16 17 18 19 20 21 22 23 24 25 26 27 28 29 30 31 32 33 34 35 36 37 38 39 40 41 42 43 44 45 46 47 48 49 50
981
ASUS46 KSTO 240215
RWRCA

NORTHERN AND CENTRAL CA REGIONAL WEATHER ROUNDUP
NATIONAL WEATHER SERVICE SACRAMENTO CA
600 PM PST FRI FEB 23 2018

NOTE: FAIR INDICATES FEW OR NO CLOUDS BELOW 12,000 FEET WITH NO
SIGNIFICANT WEATHER AND/OR OBSTRUCTIONS TO VISIBILITY.

CAZ001-003-240300-
NORTHWEST AREA

CITY           SKY/WX    TMP DP  RH WIND       PRES   REMARKS
CRESCENT CITY  CLEAR     46  33  60 NW10      30.48S
UKIAH          CLEAR     48  24  39 CALM      30.36R
$$

CAZ006-505>513-240300-
BAY AREA

CITY           SKY/WX    TMP DP  RH WIND       PRES   REMARKS
SANTA ROSA     CLEAR     50  26  39 SW5       30.34R
SAN RAFAEL     N/A       53  MM  MM MISG
NAPA           CLEAR     46  31  55 W9        30.36R
CONCORD        CLEAR     53  18  25 CALM      30.36R
OAKLAND CITY   N/A      MM  MM  MM MISG
OAKLAND        CLEAR     49  34  56 W15       30.37R
SAN FRAN CITY  N/A       48  MM  55 MISG
SAN FRAN ARPT  CLEAR     48  32  53 W18       30.37R
LIVERMORE      CLEAR     48  15  26 N6        30.34S
HAYWARD        CLEAR     49  30  48 NW9       30.36R
REDWOOD CITY   N/A       48  MM  46 MISG
MOFFETT ARPT   CLEAR     49  26  41 NW6       30.37R
SAN JOSE ARPT  CLEAR     50  28  42 W10       30.36R
$$
CAZ034-037-514>518-240300-
CENTRAL COAST

CITY           SKY/WX    TMP DP  RH WIND       PRES   REMARKS
WATSONVILLE    CLEAR     50  19  29 NW6       30.35R
SALINAS        CLEAR     50  35  56 SW9       30.35R
MONTEREY       CLEAR     49  36  61 W10       30.36R
SAN LUIS OBISP CLEAR     49  34  56 NW15      30.29R
SANTA MARIA    CLEAR     49  35  58 NW16      30.29R
$$
CAZ015-016-240300-
NORTHERN SACRAMENTO VALLEY

CITY           SKY/WX    TMP DP  RH WIND       PRES   REMARKS
REDDING        CLEAR     48  15  26 CALM      30.33S
RED BLUFF      CLEAR     49  15  25 NW8       30.35R
OROVILLE       CLEAR     48  21  34 CALM      30.36R
$$
CAZ016>018-240300-
SOUTHERN SACRAMENTO VALLEY

CITY           SKY/WX    TMP DP  RH WIND       PRES   REMARKS
AUBURN         CLEAR     43  19  39 NW3       30.31S
BEALE AFB      CLEAR     45  22  39 SW6       30.34R
LINCOLN        FAIR      41  25  52 N9        30.35R
MARYSVILLE     CLEAR     48  20  32 N6        30.36R
SAC INTL ARPT  CLEAR     45  18  34 N7        30.35S
MATHER AIRPORT CLEAR     50  16  25 NW8G14    30.34R
DOWNTOWN SAC   N/A       50  MM  MM MISG
SAC EXEC ARPT  CLEAR     49  12  22 NW6       30.35S
VACAVILLE      CLEAR     48  14  25 N7        30.37R
$$
CAZ019>021-240300-
SAN JOAQUIN VALLEY

CITY           SKY/WX    TMP DP  RH WIND       PRES   REMARKS
STOCKTON       CLEAR     51  14  22 NW15      30.34R
MODESTO        CLEAR     50  16  25 NW14      30.33R
MERCED         CLEAR     48  17  29 NW9       30.32R
LEMOORE        CLEAR     47  16  29 N10       30.34R
FRESNO         PTCLDY    50  17  27 NW12      30.32R
HANFORD        CLEAR     49  16  26 NW8       30.34R
PORTERVILLE    CLEAR     47  24  40 NW6       30.32R
BAKERSFIELD    CLEAR     48  22  35 N8        30.31R
$$
CAZ011-012-071-240300-
NORTHERN MOUNTAINS

CITY           SKY/WX    TMP DP  RH WIND       PRES   REMARKS
YREKA          MOCLDY    37  18  46 W5        30.35R WCI  33
MOUNT SHASTA   PTCLDY    32  10  40 CALM      30.28S
ALTURAS        MOCLDY    21   9  59 S5        30.29S WCI  15
$$
CAZ011-012-071-240300-
SIERRA NEVADA MTNS

CITY           SKY/WX    TMP DP  RH WIND       PRES   REMARKS
BLUE CANYON    CLEAR     28   3  34 NE3       30.23R
TRUCKEE        CLEAR     23   5  46 N3        30.22S
TAHOE VLY ARPT CLEAR     16  10  77 CALM      30.20R
MAMMOTH LAKES  FAIR      17   3  54 NW6       30.17R WCI   8
$$




USA.gov is the U.S. government's official web portal to all federal, state and local government web resources and services.